Regional Weather Roundup
Issued by NWS

Home | Current Version | Previous Version | Text Only | Print | Product List | Glossary Off
Versions: 1 2 3 4 5 6 7 8 9 10 11 12 13 14 15 16 17 18 19 20 21 22 23 24 25 26 27 28 29 30 31 32 33 34 35 36 37 38 39 40 41 42 43 44 45 46 47 48 49 50

612
ASUS43 KMPX 260010
RWRMN
WEATHER ROUNDUP FOR MINNESOTA
NATIONAL WEATHER SERVICE TWIN CITIES/CHANHASSEN MN
700 PM CDT TUE JUL 25 2017


NOTE: "FAIR" INDICATES FEW OR NO CLOUDS BELOW 12,000 FEET WITH NO
SIGNIFICANT WEATHER AND/OR OBSTRUCTIONS TO VISIBILITY. N/A MEANS
CURRENT SKY AND/OR WEATHER CONDITIONS ARE NOT AVAILABLE.

MNZ060>063-068>070-260100-
   Twin Cities Metro

CITY           SKY/WX    TMP DP  RH WIND       PRES   REMARKS
TWIN CITIES    TSTM      80  73  79 S9        29.96R
6HR MIN TEMP:  79; 6HR MAX TEMP:  85; 6HR PCP:  0.17;

ST PAUL        TSTM      77  76  96 S5        29.96R FOG
CRYSTAL        TSTM      77  71  82 S24G36    29.94R
BLAINE         CLOUDY    81  72  74 S10G16    29.93F
LAKEVILLE      CLOUDY    79  72  78 CALM      29.97R
EDEN PRAIRIE   TSTM      81  74  79 S3        29.95R
6HR MIN TEMP:  78; 6HR MAX TEMP:  85; 6HR PCP:  0.07;

SOUTH ST PAUL  CLOUDY    80  72  76 S5        29.96R
LAKE ELMO      PTSUNNY   75  73  94 SE8       29.96S
$$
MNZ001>005-007-008-013>017-022>024-027-028-260100-
   Northwest Minnesota

CITY           SKY/WX    TMP DP  RH WIND       PRES   REMARKS
BEMIDJI        MOSUNNY   74  68  80 W8        29.90F
HALLOCK        MOSUNNY   77  61  57 W9        29.88S
ROSEAU         SUNNY     77  63  61 W15G21    29.87R
WARROAD        SUNNY     77  63  61 W10G18    29.86R
THIEF RVR FALL SUNNY     80  56  43 W12       29.89S
CROOKSTON      CLOUDY    81  57  44 W10       29.88F
FOSSTON        MOSUNNY   75  68  78 SW10      29.90F
DETROIT LAKES  MOSUNNY   77  68  73 W5        29.93S
MOORHEAD       SUNNY     79  70  73 CALM      29.91R
PARK RAPIDS    PTSUNNY   79  69  71 W8        29.91F
MAHNOMEN       FAIR      76  69  80 W9        29.90F
$$
MNZ006-009>011-018-025>026-260100-
   North Central Minnesota

CITY           SKY/WX    TMP DP  RH WIND       PRES   REMARKS
BAUDETTE       PTSUNNY   80  67  64 SW9G20    29.82F
FLAG ISLAND    SUNNY     75  55  50 W18       29.83R
INTL FALLS     CLOUDY    72  66  81 SW10G18   29.85S
6HR MIN TEMP:  72; 6HR MAX TEMP:  77;

WASKISH        CLOUDY    77  70  78 SW9       29.87F
BIG FORK       PTSUNNY   73  66  78 S7        29.89F
LONGVILLE      CLOUDY    73  68  83 CALM      29.91S
GRAND RAPIDS   CLOUDY    71  68  90 CALM      29.94R
CRANE LAKE     CLOUDY    70  66  88 S5        29.88F
ORR            CLOUDY    72  63  73 S8        29.87S
COOK             N/A     70  66  88 SW7       29.90S FOG
WALKER         CLOUDY    74  67  80 SW5       29.90F
$$
MNZ012-019>021-037-260100-
   Northeast Minnesota

CITY           SKY/WX    TMP DP  RH WIND       PRES   REMARKS
DULUTH         CLOUDY    69  64  84 S3        29.92F
6HR MIN TEMP:  69; 6HR MAX TEMP:  74;

ELY            CLOUDY    70  63  78 S9        29.90F
HIBBING        CLOUDY    69  67  93 VRB5      29.90F
EVELETH        CLOUDY    73  65  77 S8        29.92S
DULUTH HARBOR  CLOUDY    64  63  94 NE6       29.90F
TWO HARBORS    CLOUDY    70  64  83 CALM      29.90F
GRAND MARAIS     N/A     65  58  78 CALM      29.90F
G MARAIS ARPRT CLOUDY    64  55  72 S8        29.94F
$$
MNZ029>031-032-039>041-046>048-054>057-064-260100-
   West Central Minnesota

CITY           SKY/WX    TMP DP  RH WIND       PRES   REMARKS
FERGUS FALLS   MOSUNNY   79  70  73 NW5       29.91R
WHEATON        CLOUDY    79  70  73 NW7       29.92F
MORRIS         CLOUDY    82  73  74 N13       29.91R
ALEXANDRIA     PTSUNNY   80  74  81 NW7       29.93R
ELBOW LAKE     FAIR      78  72  81 W9        29.93R HAZE
WADENA         CLOUDY    77  70  78 W3        29.92S
GLENWOOD       CLOUDY    81  73  78 S5        29.90S
APPLETON       CLOUDY    82  66  57 SW9G17    29.91R
BENSON         CLOUDY    82  75  78 SW12G17   29.91R
ORTONVILLE     MOSUNNY   82  73  74 MISG      29.90R
MADISON        CLOUDY    79  68  69 S10       29.91R
WILLMAR        FAIR      82  73  74 SW10G20   29.92R
$$
MNZ033>034-036-042>043-049>051-058-059-260100-
   Central Minnesota

CITY           SKY/WX    TMP DP  RH WIND       PRES   REMARKS
SAUK CENTRE    FAIR      79  73  83 CALM      29.89S
PAYNESVILLE    CLOUDY    82  74  77 S8        29.90R
AITKIN         CLOUDY    75  68  78 CALM      29.90R
PINE RIVER     CLOUDY    75  68  78 CALM      29.95S
BRAINERD       CLOUDY    77  70  79 SW7       29.92R
STAPLES        CLOUDY    77  70  78 CALM      29.92S
LONG PRAIRIE   FAIR      77  72  83 CALM      29.92R
LITTLE FALLS   MOSUNNY   79  70  73 CALM      29.91R
LITCHFIELD     CLOUDY    77  70  78 S6        29.93R
BUFFALO        TSTM      78  64  62 S14G26    29.93R
MAPLE LAKE     CLOUDY    79  67  65 S7G18     29.92S
HUTCHINSON     TSTM      71  71  98 SW8       29.98R
$$
MNZ037-044-045-052-053-260100-
   East Central Minnesota

CITY           SKY/WX    TMP DP  RH WIND       PRES   REMARKS
PRINCETON      CLOUDY    81  72  74 SE8       29.91R
MORA           MOSUNNY   77  68  73 S10       29.91S
CAMBRIDGE      CLOUDY    81  68  65 S9        29.90R
RUSH CITY      MOSUNNY   77  69  76 S12       29.90F
MOOSE LAKE     PTSUNNY   75  68  78 S3        29.88F
HINCKLEY       CLOUDY    77  70  78 S8        29.91R
CLOQUET        CLOUDY    72  64  78 SE3       29.91S
MCGREGOR       CLOUDY    73  68  83 SW3       29.91R
$$
MNZ071>073-080-081-089-090-097-098-260100-
   Southwest Minnesota

CITY           SKY/WX    TMP DP  RH WIND       PRES   REMARKS
MONTEVIDEO     CLOUDY    79  68  69 SW13G21   29.90F
GRANITE FALLS  LGT RAIN  75  70  84 S13       29.94R
CANBY          CLOUDY    73  69  86 S12G22    29.94R
MARSHALL       TSTM      72  68  88 N16       29.92F
REDWOOD FALLS  LGT RAIN  79  73  82 VRB7G20   29.93R
OLIVIA         CLOUDY    77  73  88 CALM      29.94R
PIPESTONE      CLOUDY    77  68  73 E5        29.94F
WINDOM         CLOUDY    82  72  69 SE3       29.95R
WORTHINGTON    CLOUDY    82  73  74 S5        29.95R
JACKSON        CLOUDY    81  70  69 CALM      29.96R
TRACY          CLOUDY    73  68  83 CALM      29.95F
SLAYTON        RAIN      76  57  51 N10G21    29.98R
$$
MNZ065>067-074>077-082>085-091>093-260100-
   South Central Minnesota

CITY           SKY/WX    TMP DP  RH WIND       PRES   REMARKS
MANKATO        CLOUDY    81  74  79 S5        29.95R
NEW ULM        TSTM      81  73  78 S5        29.94R
ST JAMES       CLOUDY    81  73  78 SE3       29.95R
FAIRMONT       CLOUDY    80  75  84 S6        29.95R
GLENCOE        CLOUDY    77  76  96 NW6       29.96R
FARIBAULT      CLOUDY    81  72  74 CALM      29.97R
OWATONNA       CLOUDY    81  72  74 S10       29.97R
WASECA         CLOUDY    79  70  73 S8        29.97R
ALBERT LEA     CLOUDY    81  72  74 S12G17    29.98R
$$
MNZ078>079-086>088-094>096-260100-
   Southeast Minnesota

CITY           SKY/WX    TMP DP  RH WIND       PRES   REMARKS
ROCHESTER      CLOUDY    77  70  79 S12       30.00S
6HR MIN TEMP:  75; 6HR MAX TEMP:  79;

RED WING       CLOUDY    81  66  61 CALM      29.97R
STANTON        CLOUDY    80  72  76 CALM      29.97R
DODGE CENTER   CLOUDY    77  70  78 S12G17    29.99R
WINONA         SUNNY     77  64  65 SE5       29.98S
AUSTIN         CLOUDY    79  70  73 S9        29.98S
PRESTON        SUNNY     76  67  74 S12       30.02R
$$
ABBREVIATIONS USED IN REMARKS
   TC - TEMPERATURES IN CELSIUS
  WCI - WIND CHILL INDEX
   HX - HEAT INDEX
  VSB - VISIBILITY
$$




USA.gov is the U.S. government's official web portal to all federal, state and local government web resources and services.